Regional Weather Roundup
Issued by NWS

Home | Current Version | Previous Version | Text Only | Print | Product List | Glossary On
Versions: 1 2 3 4 5 6 7 8 9 10 11 12 13 14 15 16 17 18 19 20 21 22 23 24 25 26 27 28 29 30 31 32 33 34 35 36 37 38 39 40 41 42 43 44 45 46 47 48 49 50
346
ASUS43 KLOT 251909
RWRIL

ILLINOIS REGIONAL WEATHER ROUNDUP
NATIONAL WEATHER SERVICE CHICAGO/ROMEOVILLE IL
200 PM CDT TUE JUL 25 2017

NOTE: "FAIR" INDICATES FEW OR NO CLOUDS BELOW 12,000 FEET WITH NO
SIGNIFICANT WEATHER AND/OR OBSTRUCTIONS TO VISIBILITY.

* THESE STATIONS ARE NOT UNDER NWS QUALITY CONTROL. THEY ALSO MAY NOT
  REPORT WEATHER SUCH AS PRECIPITATION OR FOG.

ILZ001-002-007-009-015-016-024-252000-
NORTHWEST ILLINOIS

CITY           SKY/WX    TMP DP  RH WIND       PRES   REMARKS
MOLINE         CLOUDY    82  67  60 SE10      30.13F HX  84
STERLING*      MOSUNNY   79  66  64 VRB6      30.17F HX  81
SAVANNA*       PTSUNNY   78  66  65 SE6       30.16S HX  80
$$

ILZ003-004-008-010-011-017-018-252000-
NORTH CENTRAL ILLINOIS

CITY           SKY/WX    TMP DP  RH WIND       PRES   REMARKS
ROCKFORD       PTSUNNY   80  62  54 S9        30.19F HX  81
FREEPORT*      PTSUNNY   76  63  65 S7        30.20S
ROCHELLE*      MOSUNNY   77  64  63 S8        30.19F
DE KALB*       SUNNY     76  61  59 S9        30.20F
PERU*          MOSUNNY  N/A N/A N/A E7        30.18S
$$

ILZ005-006-012>014-019>023-252000-
NORTHEAST ILLINOIS

CITY           SKY/WX    TMP DP  RH WIND       PRES   REMARKS
CHICAGO-OHARE  MOSUNNY   80  56  43 S8        30.18F HX  80
CHICAGO-MIDWAY MOSUNNY   80  52  37 SE6       30.19S HX  80
AURORA         MOSUNNY   80  61  52 S8        30.20S HX  81
LANSING*       SUNNY     78  57  48 SE8       30.20F
JOLIET*        SUNNY     79  59  50 SE9       30.19F HX  80
WAUKEGAN       SUNNY     75  60  59 SE14      30.19F
DUPAGE AIRPORT SUNNY     79  60  52 S6        30.18F HX  80
WHEELING       SUNNY     79  56  45 SE9G17    30.20F HX  80
MORRIS*        SUNNY     78  61  55 SE8       30.18S
ROMEOVILLE*    SUNNY     77  56  48 S6        30.19S
NORTHERLY ISL    N/A     75  59  57 E9          N/A
$$

LMZ740>746-252000-
SOUTHERN LAKE MICHIGAN

STATION/POSITION SKY/WX   TEMP    WIND        PRES    VSBY  WAVE
                          AIR SEA DIR/SP/G                  HT/PER
                          (F)     (DEG/KT/KT) (MB)    (MI)  (FT/S)
SOUTHERN BUOY              70 70  190/ 10/ 12 1023.6          2/ 4
WILMETTE HARBOR            72 72  120/ 12/ 16   N/A           2/ 4
HARRISON CRIB              74     110/ 14/ 15   N/A
BURNHAM HARBOR             75                   N/A
CALUMET HARBOR             75      80/ 10/ 14 1022.0F
BURNS HARBOR               78     200/  5/ 10 1023.0F
MICHIGAN CITY              75     110/  9/ 11   N/A
MICHIGAN CITY 6N           75 74  170/  6/  8   N/A           1/ 5
ST. JOSEPH                 75 74  240/  4/  6 1022.7          1/ 4
$$

ILZ025>027-034>036-040-047-049-050-058-095>099-252000-
WEST-CENTRAL ILLINOIS

CITY           SKY/WX    TMP DP  RH WIND       PRES   REMARKS
QUINCY         MOSUNNY   87  66  49 SE10      30.11F HX  89
GALESBURG*     MOSUNNY   81  67  63 E5        30.15F HX  83
MACOMB*        PTSUNNY   82  69  66 S5        30.16F HX  85
JACKSONVILLE*  PTSUNNY   85  69  58 E7        30.13S HX  89
PITTSFIELD*    MOSUNNY   87  70  58 CALM      30.13F HX  91
$$

ILZ028>032-037-038-041>044-048-051>054-059>061-252000-
CENTRAL ILLINOIS

CITY           SKY/WX    TMP DP  RH WIND       PRES   REMARKS
PONTIAC        SUNNY     78  65  64 E9        30.18F HX  80
BLOOMINGTON    MOSUNNY   81  66  60 E10       30.18F HX  83
DECATUR        MOSUNNY   82  67  60 E8        30.15F HX  84
PEORIA         SUNNY     81  66  60 SE7       30.15F HX  83
LACON*         PTSUNNY   80  65  61 E5        30.15F HX  82
LINCOLN*       CLOUDY    82  68  62 E6        30.15F HX  85
SPRINGFIELD    MOSUNNY   86  70  58 E10       30.13F HX  90
TAYLORVILLE    CLOUDY    83  68  60 E7        30.14S HX  86
$$

ILZ033-039-045-046-055>057-062-063-252000-
EAST-CENTRAL ILLINOIS

CITY           SKY/WX    TMP DP  RH WIND       PRES   REMARKS
CHAMPAIGN      MOSUNNY   79  65  62 E5        30.17F HX  81
RANTOUL*       MOSUNNY   81  64  56 CALM      30.18S HX  83
MATTOON        MOSUNNY   81  68  64 E7        30.15S HX  84
PARIS*         MOSUNNY   81  68  65 E5        30.18R HX  84
$$

ILZ079-100>102-252000-
SOUTHWEST ILLINOIS

CITY           SKY/WX    TMP DP  RH WIND       PRES   REMARKS
ALTON          MOSUNNY   86  73  66 E9        30.12S HX  93
BELLEVILLE     PTSUNNY   86  73  65 E7        30.10S HX  93
CAHOKIA*       PTSUNNY   90  72  55 SE6       30.09R HX  97
SPARTA*        PTSUNNY   86  74  66 E7        30.09S HX  94
$$

ILZ064>066-069>071-074>076-080>082-084>086-088>090-092>094-252000-
SOUTH-CENTRAL ILLINOIS

CITY           SKY/WX    TMP DP  RH WIND       PRES   REMARKS
CARBONDALE     PTSUNNY   88  77  69 SE5       30.08F HX 100
CAIRO*         TSTM      77  73  87 W16G22    30.08R
EFFINGHAM*     CLOUDY    86  69  57 E3        30.16S HX  89
MARION         PTSUNNY   90  75  62 E6        30.09F HX 100
MT. VERNON     PTSUNNY   86  74  67 SE6       30.11S HX  94
CENTRALIA*     PTSUNNY   87  74  63 E5        30.10S HX  95
SALEM*         PTSUNNY   88  69  53 E7        30.12S HX  91
METROPOLIS*    MOSUNNY   91  78  64 E3        30.07S HX 105
$$

ILZ067-068-072-073-078-083-087-091-252000-
SOUTHEAST ILLINOIS

CITY           SKY/WX    TMP DP  RH WIND       PRES   REMARKS
LAWRENCEVILLE  MOSUNNY   85  69  58 MISG      30.14S HX  89
FLORA*         PTSUNNY   88  69  54 NE10      30.12S HX  92
FAIRFIELD*     CLOUDY    85  71  62 E6        30.11S HX  90
HARRISBURG*    PTSUNNY   88  76  69 E9        30.09F HX  99
ROBINSON*      MOSUNNY   83  68  61 E3        30.16R HX  86
CARMI*         PTSUNNY   85  73  67 E5        30.10S HX  92
$$

ABBREVIATIONS USED IN REMARKS
   TC - TEMPERATURE IN CELSIUS
  WCI - WIND CHILL INDEX
   HX - HEAT INDEX
  VSB - VISIBILITY
$$





USA.gov is the U.S. government's official web portal to all federal, state and local government web resources and services.